カタログに戻る

SL-8 R/B

運用中LEO
NORAD 4579·ROCKET BODY·🇷🇺 Russia

打ち上げ Oct 12, 1970 から Plesetsk Cosmodrome

Loading…

次のパス (今後24時間)

TLE

最新Source: Space-Track

元期: Sep 14, 2026, 13:34 UTC

1 04579U 70083B   26257.56552495  .00000361  00000-0  75177-4 0  9997
2 04579  73.9997 102.8198 0009926 355.7985   4.3098 14.63762490967882

AllMySatでSL-8 R/Bをリアルタイム追跡

Download on the App Store